Terminal Aerodrome Forecast
Issued by NWS

Current Version | Previous Version | Graphics & Text | Print | Product List | Glossary On
Versions: 1 2 3 4 5 6 7 8 9 10 11 12 13 14 15 16 17 18 19 20 21 22 23 24 25 26 27 28 29 30
000
FTUS41 KILN 142300
TAFLUK
TAF
KLUK 142335Z 1500/1524 00000KT P6SM SKC
     FM150600 00000KT 4SM BR SKC
     FM150800 00000KT 2SM BR SCT002 SCT250
      TEMPO 1508/1512 1/2SM FG BKN002
     FM151200 00000KT 4SM BR SCT250
     FM151400 17005KT P6SM BKN150
     FM151700 21007KT P6SM BKN150
     FM152200 22005KT P6SM SCT050 BKN080=

USA.gov is the U.S. government's official web portal to all federal, state and local government web resources and services.